Location: Unspecified
(42.3650°N, 71.1030°W)
Time: 17:12:24
(UTC+00:00)

Tiros 1 - Pass Details

Date: 04 July 2024
Orbit: 624 x 656 km, 48.4° (Epoch: 13 July)

Event Time Altitude Azimuth Distance (km) Brightness Sun altitude
Rises 03:13:19 0° 285° (WNW) 2,903 11.1 -21.2°
Reaches altitude 10° 03:15:46 10° 293° (WNW) 1,995 10.3 -21.3°
Maximum altitude 03:20:04 38° 2° (N) 952 8.5 -21.6°
Drops below altitude 10° 03:24:22 10° 72° (ENE) 1,999 9.6 -21.9°
Enters shadow 03:26:39 - 80° (E) 2,843 10.4 -22.1°
Sets 03:26:49 0° 80° (E) 2,909 - -22.1°
